This is the latest recevied weather packets stored in our database for station/object KB7KFC-3. If no packets are shown the sender has not sent any weather packets the latest 10 day(s).
| Time | Temp. | Humidity | Pressure | Rain* | Wind** | Luminosity | Snow |
|---|---|---|---|---|---|---|---|
| 1778091364 | 25.56° C | 25% | 1017.5 hPa | 0 mm | - | - | - |
| 1778091185 | 25.56° C | 25% | 1017.5 hPa | 0 mm | - | - | - |
| 1778091005 | 25.56° C | 28% | 1017.5 hPa | 0 mm | - | - | - |
| 1778090825 | 25° C | 28% | 1017.5 hPa | 0 mm | - | - | - |
| 1778090645 | 24.44° C | 27% | 1017.5 hPa | 0 mm | - | - | - |
| 1778090466 | 23.89° C | 26% | 1017.5 hPa | 0 mm | - | - | - |
| 1778090284 | 24.44° C | 27% | 1017.6 hPa | 0 mm | - | - | - |
| 1778090105 | 24.44° C | 28% | 1017.5 hPa | 0 mm | - | - | - |
| 1778089925 | 24.44° C | 29% | 1017.6 hPa | 0 mm | - | - | - |
| 1778089744 | 23.89° C | 27% | 1017.6 hPa | 0 mm | - | - | - |
| 1778089564 | 23.89° C | 26% | 1017.6 hPa | 0 mm | - | - | - |
| 1778089385 | 24.44° C | 26% | 1017.6 hPa | 0 mm | - | - | - |
| 1778089205 | 24.44° C | 27% | 1017.6 hPa | 0 mm | - | - | - |
| 1778089025 | 23.89° C | 26% | 1017.6 hPa | 0 mm | - | - | - |
| 1778088845 | 23.89° C | 28% | 1017.6 hPa | 0 mm | - | - | - |
| 1778088665 | 23.89° C | 26% | 1017.5 hPa | 0 mm | - | - | - |
| 1778088485 | 23.89° C | 28% | 1017.5 hPa | 0 mm | - | - | - |
| 1778088304 | 23.33° C | 28% | 1017.6 hPa | 0 mm | - | - | - |
| 1778088124 | 23.33° C | 28% | 1017.5 hPa | 0 mm | - | - | - |
| 1778087945 | 23.33° C | 28% | 1017.5 hPa | 0 mm | - | - | - |
| 1778087764 | 23.89° C | 29% | 1017.5 hPa | 0 mm | - | - | - |
| 1778087584 | 23.33° C | 29% | 1017.4 hPa | 0 mm | - | - | - |
| 1778087404 | 23.33° C | 29% | 1017.5 hPa | 0 mm | - | - | - |
| 1778087224 | 22.78° C | 28% | 1017.5 hPa | 0 mm | - | - | - |
| 1778087045 | 22.78° C | 28% | 1017.5 hPa | 0 mm | - | - | - |
* Rain latest hour (hover to see other rain measurements)
** Current wind speed in m/s (hover to see current wind gust speed)